Flag for U.S.A. Weather past 2 weeks in Grand Junction, Colorado, U.S.A.

Now
90 °F

Sunny.


Feels Like: 87 °F
Forecast: 67 / 95 °F
Wind: 6 mph from North

Location: Walker Field

Current Time: Jul 26, 2014 at 2:04:08 PM

Latest Report: Jul 26, 2014 at 12:53 PM


Visibility: 10 mi

Pressure: 29.91 "Hg

Humidity: 24%

Dew point: 49 °F

Location of Grand JunctionLocation

Historic Weather in Grand Junction — Graph

°F

Grand Junction temperature yesterday

Maximum temperature yesterday: 86 °F (at 11:53 AM)
Minimum temperature yesterday: 68 °F (at 6:02 AM)
Average temperature yesterday: 75 °F

Past Weeks' High & Low Weather Summary

 TemperatureHumidityPressure
High98 °F (Jul 23, 3:53 PM)68% (Jul 26, 3:53 AM)30.12 "Hg (Jul 26, 3:53 AM)
Low62 °F (Jul 18, 5:53 AM)7% (Jul 21, 5:53 PM)29.64 "Hg (Jul 16, 6:53 PM)
Average80 °F29%29.87 "Hg
* Reported Jul 11 12:53 PM — Jul 26 12:53 PM, Grand Junction, Weather by CustomWeather, © 2014

Note: Actual official high and low records may vary slightly from our data, if they occured in-between our weather recording intervals... More about our weather records

Advertising

Grand Junction weather history for previous 24 hours

 ConditionsComfort  
Time TempWeatherWind HumidityBarometerVisibility
12:53 PM
Jul 26
90 °FSunny.6 mph24%29.91 "Hg10 mi
11:53 AM85 °FSunny.5 mph28%29.95 "Hg10 mi
10:53 AM83 °FSunny.6 mph33%29.97 "Hg10 mi
9:53 AM79 °FSunny.7 mph38%29.98 "Hg10 mi
8:53 AM74 °FSunny.7 mph48%29.99 "Hg10 mi
7:53 AM71 °FSunny.10 mph53%29.96 "Hg10 mi
6:53 AM64 °FClear.6 mph68%29.95 "Hg10 mi
5:53 AM66 °FClear.6 mph61%29.93 "Hg10 mi
4:53 AM65 °FClear.7 mph66%29.93 "Hg10 mi
3:53 AM65 °FClear.3 mph68%29.93 "Hg10 mi
2:53 AM71 °FClear.6 mph51%29.90 "Hg10 mi
1:53 AM69 °FClear.7 mph55%29.90 "Hg10 mi
12:53 AM70 °FClear.12 mph57%29.88 "Hg10 mi
11:53 PM
Jul 25
69 °FClear.5 mph63%29.87 "Hg10 mi
10:53 PM71 °FClear.6 mph66%29.87 "Hg10 mi
9:53 PM73 °FClear.No wind66%29.87 "Hg10 mi
8:53 PM73 °FSunny.5 mph66%29.85 "Hg10 mi
7:53 PM79 °FSunny.5 mph50%29.81 "Hg10 mi
6:53 PM83 °FSunny.6 mph37%29.81 "Hg10 mi
5:53 PM80 °FSunny.7 mph45%29.85 "Hg10 mi
4:53 PM74 °FPassing clouds.8 mph64%29.87 "Hg10 mi
3:53 PM70 °FThunderstorms. Overcast.10 mph66%29.95 "Hg10 mi
2:53 PM73 °FThunderstorms. Partly sunny.8 mph62%29.93 "Hg10 mi
Weather by CustomWeather, © 2014

See weather overviewHow to use our weather pages